AirNav   Everest Fuels
 
 380 users online  

09R Tyler County Airport
Woodville, Texas, USA

GOING TO WOODVILLE?


FAA INFORMATION EFFECTIVE 18 JUNE 2020

Location

FAA Identifier: 09R
Lat/Long: 30-46-30.7220N 094-27-30.7170W
30-46.512033N 094-27.511950W
30.7752006,-94.4585325
(estimated)
Elevation: 388 ft. / 118 m (estimated)
Variation: 05E (1985)
From city: 2 miles W of WOODVILLE, TX
Time zone: UTC -5 (UTC -6 during Standard Time)
Zip code: 75979

Airport Operations

Airport use: Open to the public
Activation date: 10/1961
Control tower: no
ARTCC: HOUSTON CENTER
FSS: MONTGOMERY COUNTY FLIGHT SERVICE STATION
FOR FP FILING CALL CXO FSS 1-800-833-5602
NOTAMs facility: CXO (NOTAM-D service available)
Attendance: UNATNDD
Wind indicator: lighted
Segmented circle: yes
Lights: DUSK-DAWN. MIRL RY 16/34 PRESET LOW INTST; TO INCR INTST ACTVT - 122.8.
Beacon: white-green (lighted land airport)
Operates sunset to sunrise.

Airport Communications

CTAF: 122.9

Nearby radio navigation aids

VOR radial/distance  VOR name  Freq  Var
LFKr145/26.8LUFKIN VORTAC112.1005E
DASr010/36.4DAISETTA VORTAC116.9005E

Airport Services

Airframe service: NONE
Powerplant service: NONE
Bottled oxygen: NONE
Bulk oxygen: NONE

Runway Information

Runway 16/34

Dimensions: 4000 x 60 ft. / 1219 x 18 m
Surface: asphalt, in fair condition
Weight bearing capacity: 
Single wheel: 30.0
Runway edge lights: medium intensity
Runway edge markings: RWY MARKINGS FADED.
RUNWAY 16  RUNWAY 34
Traffic pattern: leftleft
Displaced threshold: 178 ft.no
Markings: basic, in poor conditionbasic, in poor condition
Visual slope indicator: 2-light PAPI on left (3.00 degrees glide path)
Obstructions: none
APCH RATIO 26:1 TO DSPLCD THLD; 15 FT TREES 400 FT FM DSPLCD THLD 150 FT L OF CENTERLINE.
79 ft. trees, 1881 ft. from runway, 21:1 slope to clear

Airport Ownership and Management from official FAA records

Ownership: Publicly-owned
Owner: TYLER COUNTY
TYLER CO COURTHOUSE, ROOM 100
WOODVILLE, TX 75979
Phone 409-283-2141
Manager: MIKE MARSHALL
205 N. CHARLTON
WOODVILLE, TX 75979
Phone 409-283-7623
COUNTY COMMISSIONER.

Airport Operational Statistics

Aircraft based on the field: 3
Single engine airplanes: 3
    
Aircraft operations: avg 23/week *
75% local general aviation
25% transient general aviation
* for 12-month period ending 25 March 2019

Additional Remarks

RWY 16, 5' DROP-OFF 25' FM WEST SIDE 400' SOUTH OF THR & 20' DROP-OFF 100' NORTH OF THR.
FOR CD CTC HOUSTON ARTCC AT 281-230-5622.

Instrument Procedures

There are no published instrument procedures at 09R.

Some nearby airports with instrument procedures:

KJAS - Jasper County Airport-Bell Field (23 nm E)
45R - Hawthorne Field Airport (28 nm S)
00R - Livingston Municipal Airport (29 nm W)
KLFK - Angelina County Airport (31 nm NW)
6R3 - Cleveland Municipal Airport (38 nm SW)
 
Loc | Ops | Rwys | IFR | FBO | Links
Com | Nav | Svcs | Stats | Notes
Area around 09R (Tyler County Airport)
 
Road maps at: MapQuest Bing Google
 
Aerial photo
WARNING: Photo may not be current or correct
Aerial photo of 09R (Tyler County Airport)
Do you have a better or more recent aerial photo of Tyler County Airport that you would like to share? If so, please send us your photo.

 
Sectional chart

 
Airport distance calculator
Flying to Tyler County Airport? Find the distance to fly.

From to 09R

Sunrise and sunset
Times for 12-Jul-2020
 Local
(UTC-5)
 Zulu
(UTC)
Morning civil twilight05:5810:58
Sunrise06:2511:25
Sunset20:2201:22
Evening civil twilight20:4901:49

Current date and time
Zulu (UTC)  12-Jul-2020 11:04:04
Local (UTC-5)  12-Jul-2020 06:04:04
 
METAR
KJAS 
23nm E 
121055Z AUTO 00000KT 3SM BR CLR 25/25 A3001 RMK AO2 T02510248
KLFK 
31nm NW 
121053Z AUTO 34003KT 7SM CLR 26/24 A3001 RMK AO2 SLP156 T02560239
K6R3 
38nm SW 
121030Z AUTO 00000KT 3SM BR SCT012 24/24 A3001 RMK AO2 T02410236
KBMT 
44nm S 
121055Z AUTO 27004KT 10SM CLR 27/26 A2998 RMK AO2 T02650255
TAF
KLFK 
31nm NW 
120540Z 1206/1306 VRB03KT P6SM SKC FM121500 22009KT P6SM FEW040 BKN150 BKN250 FM130100 18005KT P6SM FEW150 SCT250
NOTAMs
Click for the latest NOTAMs
NOTAMs are issued by the DoD/FAA and will open in a separate window not controlled by AirNav.

 

 
 

Where to Eat: Catering, Restaurants, Food shops

  
 Business Name 
 
 Contact 
 
 Services / Description 
 
Distance
 
Comments
  
The Pickett House 409-283-3371
no information available

If you are affiliated with The Pickett House and would like to show here your services, contact info, web link, logo, and more, click here
1.5 miles
free shuttle
 
   1 read write
 

Would you like to see your business listed on this page?

 If your business provides an interesting product or service to pilots, flight crews, aircraft, or users of the Tyler County Airport, you should consider listing it here.  To start the listing process, click on the button below
 
Add a business
 

Other Pages about Tyler County Airport

Update a link
 
Copyright © AirNav, LLC. All rights reserved. Privacy Policy  Contact